Regional Weather Roundup
Issued by NWS

Home | Current Version | Previous Version | Text Only | Print | Product List | Glossary On
Versions: 1 2 3 4 5 6 7 8 9 10 11 12 13 14 15 16 17 18 19 20 21 22 23 24 25 26 27 28 29 30 31 32 33 34 35 36 37 38 39 40 41 42 43 44 45 46 47 48 49 50
000
ASUS43 KDMX 230001
RWRIA

WEATHER ROUNDUP FOR IOWA
NATIONAL WEATHER SERVICE DES MOINES IA
700 PM CDT THU JUN 22 2017

NOTE: "FAIR" INDICATES FEW OR NO CLOUDS BELOW 12,000 FEET WITH NO
SIGNIFICANT WEATHER AND/OR OBSTRUCTIONS TO VISIBILITY.

* - THESE STATIONS ARE NOT NWS STATIONS...THUS NOT UNDER NWS
QUALITY CONTROL.  THEY ALSO DO NOT REPORT WEATHER SUCH
AS PRECIPITATION OR FOG.

IAZ001>003-012>014-020>022-031>034-043>046-230100-
   NORTHWEST IOWA

CITY           SKY/WX    TMP DP  RH WIND       PRES   REMARKS
CARROLL *      CLOUDY    84  70  61 N9        29.65S HX  88
CHEROKEE *     CLOUDY    73  65  76 N14G24    29.71R
DENISON *      CLOUDY    82  68  61 NE7       29.67S HX  85
LE MARS *      CLOUDY    73  64  73 N12G20    29.73R
ORANGE CITY *  CLOUDY    72  64  78 N13G23    29.74R
SHELDON *      CLOUDY    70  63  78 N15G23    29.74R
SIOUX CITY     CLOUDY    83  63  50 N15G23    29.69R HX  84
6HR MIN TEMP:  82; 6HR MAX TEMP:  88; 6HR PCP: TRACE;

SPENCER        CLOUDY    70  62  76 N18G25    29.74R
6HR MIN TEMP:  69; 6HR MAX TEMP:  83;

STORM LAKE *   CLOUDY    77  64  65 N15       29.70R
$$

IAZ055>058-069>071-079>083-090>094-230100-
   SOUTHWEST IOWA

CITY           SKY/WX    TMP DP  RH WIND       PRES   REMARKS
ATLANTIC *     PTSUNNY   86  72  62 S6        29.64S HX  92
AUDUBON *      MOSUNNY   84  73  70 S3        29.66S HX  91
CLARINDA *     CLOUDY    86  72  62 S10       29.65F HX  92
COUNCIL BLFS * PTSUNNY   86  75  70 S6        29.63S HX  95
CRESTON *      PTSUNNY   84  70  61 S9        29.68S HX  88
HARLAN  *      CLOUDY    86  70  58 S5        29.67S HX  90
LAMONI         PTSUNNY   83  71  67 S10       29.67R HX  87
6HR MIN TEMP:  78; 6HR MAX TEMP:  86; 6HR PCP:  0.01;

RED OAK *      CLOUDY    86  70  58 S7        29.63F HX  90
SHENANDOAH *   MOSUNNY   86  70  58 S10       29.63S HX  90
$$

IAZ047>049-059>061-072>074-084-230100-
   CENTRAL IOWA

CITY           SKY/WX    TMP DP  RH WIND       PRES   REMARKS
AMES           CLOUDY    85  69  58 SW7       29.65S HX  89
6HR MIN TEMP:  81; 6HR MAX TEMP:  87;

ANKENY *       SUNNY     86  70  58 SW7G13    29.66S HX  90
BOONE *        PTSUNNY   84  70  61 S6        29.65S HX  88
CHARITON *     MOSUNNY   84  70  61 S14       29.66R HX  88
DES MOINES     MOSUNNY   87  69  54 SW10      29.65R HX  91
6HR MIN TEMP:  78; 6HR MAX TEMP:  89; 6HR PCP:  0.01;

GRINNELL*      CLOUDY    84  69  61 SW13      29.68R HX  87
KNOXVILLE *    PTSUNNY   84  70  61 S9G15     29.65R HX  88
NEWTON *       MOSUNNY   82  72  69 S6        29.67R HX  87
PELLA *        CLOUDY    84  71  63 S3        29.67R HX  89
PERRY *        CLOUDY    85  65  51 SW8       29.65S HX  87
$$

IAZ004>006-015-016-023>025-035-036-230100-
   NORTH CENTRAL IOWA

CITY           SKY/WX    TMP DP  RH WIND       PRES   REMARKS
ALGONA *       CLOUDY    75  68  78 N13G18    29.70R
CLARION *        N/A     77  75  94 NE8       29.66F
ESTHERVILLE    CLOUDY    67  63  87 N15       29.73R
6HR MIN TEMP:  67; 6HR MAX TEMP:  78;

FORT DODGE *   CLOUDY    81  70  69 N7        29.67S HX  84
MASON CITY     CLOUDY    74  69  85 N5        29.70S
6HR MIN TEMP:  72; 6HR MAX TEMP:  75; 6HR PCP:  0.01;

FOREST CITY *  PTSUNNY   73  63  68 NE5       29.70S
WEBSTER CITY * SUNNY     82  70  65 S7        29.63F HX  86
IOWA FALLS *   PTSUNNY   85  68  56 SW5       29.68S HX  89
$$

IAZ007>011-017>019-026>030-037>042-050>054-066-230100-
   NORTHEAST IOWA

CITY           SKY/WX    TMP DP  RH WIND       PRES   REMARKS
CEDAR RAPIDS   CLOUDY    82  73  74 S12       29.65S HX  87
6HR MIN TEMP:  77; 6HR MAX TEMP:  86; 6HR PCP:  0.01;

CHARLES CITY * MOSUNNY   77  75  94 NE7       29.69S
CLINTON *      CLOUDY    82  72  71 SW10      29.70R HX  87
DECORAH *      PTSUNNY   72  70  94 NE6       29.69S
DUBUQUE        PTSUNNY   81  71  71 S5        29.70S HX  85
6HR MIN TEMP:  78; 6HR MAX TEMP:  83; 6HR PCP: TRACE;

MONTICELLO *   MOSUNNY   82  72  69 CALM      29.67S HX  87
OELWEIN *      CLOUDY    79  73  83 CALM      29.69R HX  82
WATERLOO       PTSUNNY   84  73  69 N7        29.65R HX  90
6HR MIN TEMP:  75; 6HR MAX TEMP:  84; 6HR PCP: TRACE;

$$

IAZ064-065-067-068-078-230100-
   EAST CENTRAL IOWA

CITY           SKY/WX    TMP DP  RH WIND       PRES   REMARKS
DAVENPORT      MOSUNNY   81  71  71 S10G23    29.68R HX  85
6HR MIN TEMP:  81; 6HR MAX TEMP:  86;

IOWA CITY      CLOUDY    84  71  65 S8        29.69R HX  89
6HR MIN TEMP:  83; 6HR MAX TEMP:  87;

MT. PLEASANT * CLOUDY    81  69  66 S13       29.66S HX  85
MUSCATINE *    CLOUDY    82  70  65 S8        29.67R HX  86
QUAD CITIES    MOSUNNY   83  70  64 VRB7      29.67R HX  87
6HR MIN TEMP:  83; 6HR MAX TEMP:  89;

$$

IAZ062-063-075>077-085>089-095>099-230100-
   SOUTHEAST IOWA

CITY           SKY/WX    TMP DP  RH WIND       PRES   REMARKS
BURLINGTON     CLOUDY    81  73  76 S15       29.68S HX  86
6HR MIN TEMP:  81; 6HR MAX TEMP:  86;

FAIRFIELD *    PTSUNNY   84  70  61 S20       29.64S HX  88
FORT MADISON * CLOUDY    82  73  74 S13       29.69S HX  88
KEOKUK *       CLOUDY    82  73  74 S9        29.68F HX  88
OSKALOOSA *    PTSUNNY   83  71  67 S7        29.67R HX  87
OTTUMWA        MOSUNNY   85  71  63 S10       29.66R HX  90
6HR MIN TEMP:  83; 6HR MAX TEMP:  90; 6HR PCP: TRACE;

WASHINGTON *   CLOUDY    82  72  69 CALM      29.69R HX  87
$$

ABBREVIATIONS USED IN REMARKS
   TC - TEMPERATURES IN CELSIUS
  WCI - WIND CHILL INDEX
   HX - HEAT INDEX
  VSB - VISIBILITY
$$




USA.gov is the U.S. government's official web portal to all federal, state and local government web resources and services.